Vorticity
nan nan nan nan nan nan nan nan nan nan nan nan nan nan nan nan nan nan nan nan nan nan nan nan nan nan nan nan nan nan nan nan nan nan nan nan nan nan nan nan nan nan nan nan
nan 10 6 8 8 7 4 4 8 2 2 6 10 9 10 12 11 9 7 8 8 9 8 9 8 7 7 7 6 7 7 6 4 4 7 8 8 7 8 7 8 8 8 nan
nan 13 16 11 6 8 7 5 4 4 3 3 11 10 10 8 14 12 8 8 10 8 9 10 8 7 7 7 7 6 8 6 6 4 6 6 7 9 9 8 9 8 7 nan
nan 9 15 5 9 9 7 4 3 6 3 10 4 10 15 10 7 10 10 11 9 9 8 8 8 8 7 7 7 7 7 7 7 8 4 8 6 7 7 8 7 9 9 nan
nan 10 7 5 10 4 9 10 11 6 3 6 2 5 12 13 11 9 10 9 9 11 8 8 8 8 7 6 7 8 8 8 8 6 5 7 7 5 7 9 9 9 9 nan
nan 6 9 9 8 6 9 12 11 12 11 11 10 3 9 12 10 9 10 11 10 10 10 9 8 8 8 8 7 8 8 9 10 8 7 3 6 6 6 7 7 8 10 nan
nan 3 8 14 9 13 9 4 6 11 9 10 15 10 2 7 13 14 9 13 12 11 10 9 8 8 10 8 7 6 9 9 9 8 7 8 6 7 5 6 5 7 8 nan
nan 14 17 7 9 12 11 -5 1 6 10 14 9 10 12 7 2 7 18 12 12 11 11 11 9 7 8 9 8 7 8 9 9 8 7 8 7 5 9 5 7 8 8 nan
nan 13 14 7 13 8 9 7 -4 2 2 8 18 8 5 15 18 9 7 7 12 11 11 10 10 8 7 8 9 9 7 8 9 8 7 9 8 7 7 8 8 7 8 nan
nan 22 15 15 5 5 9 15 5 7 4 8 9 9 14 15 10 10 11 8 8 10 12 10 11 11 9 8 9 8 7 8 9 7 5 8 9 8 7 8 8 8 9 nan
nan 21 15 9 11 8 5 7 7 8 12 7 5 15 19 13 15 12 10 11 9 10 10 11 10 11 10 9 9 9 8 7 7 8 8 8 10 9 8 8 8 8 8 nan
nan 12 17 14 9 11 6 9 4 6 8 -3 6 15 16 20 22 18 13 13 12 10 9 9 11 12 12 11 11 10 9 8 7 8 9 9 8 10 9 9 9 9 8 nan
nan 16 8 12 16 14 10 7 3 1 7 14 4 2 5 7 11 17 16 15 17 14 11 10 12 11 10 11 12 12 12 10 8 9 7 8 9 8 9 10 9 9 9 nan
nan 17 17 5 13 16 17 7 9 2 0 6 7 4 -1 -3 4 9 10 9 12 14 13 13 12 11 12 12 12 14 11 13 11 10 8 9 10 9 9 9 10 9 9 nan
nan 20 11 5 6 12 26 26 10 4 4 1 3 5 -0 5 1 -5 3 10 9 5 8 13 13 12 13 12 12 13 11 11 11 12 10 10 9 10 10 10 10 10 9 nan
nan 15 11 16 8 6 10 11 11 17 15 10 3 4 10 5 2 5 3 5 5 5 8 12 14 12 11 13 12 11 12 11 10 10 10 9 10 10 9 10 10 9 9 nan
nan 11 16 17 10 4 16 16 9 8 11 13 11 8 7 6 7 8 7 8 5 6 11 13 12 11 12 14 12 13 12 12 10 9 10 10 11 10 10 10 9 10 10 nan
nan 9 8 14 14 8 15 24 18 13 10 8 7 8 9 12 9 7 6 5 5 6 9 12 9 12 11 10 12 14 12 11 11 10 9 10 10 10 11 10 9 10 11 nan
nan 5 12 15 -1 7 18 9 15 17 16 18 16 12 14 13 11 12 9 11 13 11 9 8 6 4 9 13 14 15 14 12 10 10 10 10 10 10 10 10 9 9 9 nan
nan 5 7 14 12 7 3 19 9 6 19 14 18 17 14 17 17 14 12 7 11 14 10 8 10 12 15 14 15 17 12 10 10 11 10 10 11 11 9 9 11 10 11 nan
nan 11 11 3 6 6 5 9 17 13 -0 6 7 11 13 11 5 4 10 12 10 9 11 12 16 17 15 17 17 14 14 11 11 10 12 11 12 11 11 11 11 11 10 nan
nan 8 12 10 14 4 0 6 4 -0 3 3 4 5 7 8 8 10 10 10 11 9 9 11 16 16 17 16 15 13 10 10 13 14 13 12 11 10 11 12 11 11 11 nan
nan 5 11 9 5 2 1 3 6 4 4 5 7 5 6 8 8 8 14 16 15 14 12 14 14 17 17 14 12 10 11 15 13 13 12 12 12 10 11 14 11 11 10 nan
nan 11 8 8 6 2 2 2 -1 7 12 8 9 9 8 8 8 11 15 16 17 16 17 15 15 16 14 14 14 14 16 14 13 13 12 12 12 12 12 11 11 10 10 nan
nan 10 13 13 11 9 7 9 8 6 7 8 9 12 11 10 8 12 15 20 23 17 16 19 18 14 15 16 17 18 16 13 11 11 12 12 13 13 9 6 16 22 14 nan
nan nan nan nan nan nan nan nan nan nan nan nan nan nan nan nan nan nan nan nan nan nan nan nan nan nan nan nan nan nan nan nan nan nan nan nan nan nan nan nan nan nan nan nan
CAPE
0 0 0 0 0 0 0 0 0 0 3 1 35 57 29 46 628 784 1019 1006 841 478 378 368 443 414 413 503 713 897 1014 1982 1551 1336 1016 716 384 432 463 1067 1681 2291 2623 2763
0 0 0 0 0 0 0 0 0 0 0 0 2 4 0 0 461 672 992 1083 1046 767 395 389 473 444 482 690 924 1302 1464 1832 1994 1337 1194 653 538 294 664 1267 1791 2444 2394 2778
0 0 0 0 0 0 0 0 0 0 0 0 0 0 0 0 92 458 768 1021 1025 977 618 495 520 583 499 636 904 1262 2066 2171 2045 1873 1169 874 541 803 911 1345 1709 2319 2480 2490
0 0 0 0 0 0 0 0 0 0 0 0 0 2 8 0 72 306 582 884 1004 1009 888 423 430 662 449 578 846 1403 2004 2310 2297 1858 1524 2154 559 468 577 1437 1361 1470 2065 2166
0 0 0 0 0 0 0 0 0 0 0 0 0 0 0 0 0 251 491 788 876 976 940 672 390 412 587 753 1005 1292 2146 2676 2702 2582 2383 1662 1612 288 749 1303 2595 3271 2898 2393
0 0 0 0 0 0 0 0 0 0 0 0 0 0 0 0 3 26 246 556 833 814 847 961 435 327 618 820 1073 1303 2323 3530 3003 2515 2231 3038 2752 1784 1358 2112 1831 1891 1862 1840
0 0 0 0 0 0 0 0 0 0 0 0 0 0 0 0 0 0 11 180 652 917 847 921 959 518 520 711 1018 1459 2754 3524 3142 2515 2476 2696 2883 3013 3030 2711 2036 2557 1409 1332
0 0 0 0 0 0 0 0 0 0 0 0 0 0 0 0 0 0 0 1 543 771 964 931 1076 1010 818 762 1757 2044 2829 3269 2625 2565 3310 3453 3643 1945 1845 2506 1737 1639 1535 1246
0 0 0 0 0 0 0 0 0 0 0 0 0 0 0 0 0 0 0 0 0 237 824 1040 1037 1140 1195 1201 1844 2522 3020 3455 3331 2620 3615 3608 3384 3267 2229 3138 3234 2047 2801 1535
0 0 0 0 0 0 0 0 0 0 0 0 0 0 0 0 0 0 0 0 0 0 322 853 1099 1145 1390 1328 1556 2230 2959 3462 3412 3046 3080 2769 3198 3385 3410 3557 3535 3421 3307 2958
0 0 0 0 0 0 0 0 0 0 0 0 0 0 0 0 0 0 0 0 0 0 141 836 1001 1074 1272 1372 1347 1685 2292 2927 2835 2933 3084 3264 3139 2788 3189 2976 3599 3705 3763 3824
0 0 0 0 0 0 0 0 0 0 0 0 0 0 0 0 0 0 0 0 0 0 3 364 650 935 1046 1213 1308 1406 1614 1856 2077 2674 3259 3331 3424 3332 3080 3317 3440 3649 3719 4009
0 0 0 0 0 0 0 0 0 0 0 0 0 0 0 0 0 0 0 0 0 0 0 0 19 172 583 1020 1928 1278 1338 1520 1752 2476 2201 2954 3307 3330 3503 3635 3565 3591 3723 3917
0 0 0 0 0 0 0 0 0 0 0 0 0 0 0 0 0 0 0 0 0 0 0 0 34 92 127 800 2249 2478 1595 1340 1583 1819 2110 2888 3343 3405 3398 3554 3573 3562 3758 3901
0 0 0 0 0 0 0 0 0 0 0 0 0 0 0 0 0 0 0 0 0 0 0 0 137 278 678 942 2183 2657 2155 2144 1855 2512 2616 2843 3304 3560 3626 3687 3705 3769 3854 3836
0 0 0 0 0 0 0 0 0 0 0 0 0 0 0 0 0 0 0 0 0 0 0 0 5 152 801 1105 1459 1953 2208 1996 2228 2795 2777 3091 3403 3742 3674 3727 3827 3898 3868 3961
0 0 0 0 0 0 0 0 0 0 0 0 0 0 0 0 0 0 0 0 0 0 0 0 0 174 560 1265 1385 1928 2240 1820 2429 2791 3058 3322 3535 3696 3784 3602 3754 3947 3967 3776
0 0 0 0 0 0 0 0 0 0 0 0 0 0 0 0 0 0 0 0 0 0 0 0 0 0 280 516 541 1424 1432 2426 2618 2918 3079 3460 3640 3655 3760 3894 3909 4044 3914 3844
0 0 0 0 0 0 0 0 0 0 0 0 0 0 0 0 0 0 0 0 0 0 0 0 0 0 0 0 203 916 1481 1711 2072 2957 3155 3357 3539 3748 3876 3963 3975 4053 3596 3619
0 0 0 0 0 0 0 0 0 0 0 0 0 0 0 0 0 0 0 0 0 0 0 0 0 0 0 0 23 767 1532 2274 2927 3140 3221 3439 3719 3894 3956 3941 3920 3714 3635 2997
9 1 0 0 0 0 0 0 1 1 29 15 0 0 73 115 37 43 35 26 0 0 0 0 0 0 127 25 450 1903 1737 2354 3111 2412 2435 3345 3926 4160 4076 4208 4001 3790 3507 3418
68 19 1 0 0 0 0 0 10 24 6 3 0 0 0 24 120 256 373 308 194 50 51 0 0 0 0 507 1335 3010 3196 3130 3273 3384 2756 3681 3983 3114 2788 4039 3576 3707 3785 3819
40 39 61 7 0 0 0 0 0 0 0 0 0 0 0 0 0 31 643 844 698 627 345 0 221 22 368 863 1587 2219 3718 3620 3055 3122 3793 3979 3786 3250 3609 3915 3655 3242 3551 3103
22 31 52 62 10 16 7 0 0 0 0 0 0 0 0 0 0 66 909 1275 1127 1066 425 702 350 425 1380 1972 2251 2346 2396 3211 3296 3230 3215 3445 3601 3856 3448 3148 3238 3185 3092 3205
35 78 63 53 37 30 31 0 0 0 20 2 2 0 0 0 0 144 1258 1823 1364 994 2416 1816 1885 2521 2878 2997 2988 2586 2637 2730 2672 2957 3103 3298 3352 3397 3577 2514 2169 3387 3741 2786
4 3 16 16 16 32 21 9 0 1 0 0 0 0 0 2 11 148 1682 2094 2163 2017 2137 2482 2645 3462 4038 3687 2910 3476 2881 2840 3103 3308 3261 3199 3245 3467 3478 2547 895 1 0 3